Location: Bronnegerveen
(52.9548°N, 6.8388°E)
Time: 02:10:30
(UTC+00:00)

CZ-2C R/B - Pass Details

Date: 15 June 2025
Orbit: 702 x 903 km, 98.2° (Epoch: 06 July)

Event Time Altitude Azimuth Distance (km) Brightness Sun altitude
Rises 01:25:54 0° 11° (NNE) 3,462 8.2 -9.9°
Reaches altitude 10° 01:28:24 10° 6° (N) 2,495 6.9 -9.7°
Maximum altitude 01:33:41 47° 295° (WNW) 1,079 3.8 -9.4°
Enters shadow 01:38:34 11° 223° (SW) 2,318 4.9 -9.0°
